{"data":{"norad_id":55959,"epoch":"2026-05-25T04:44:31.978176Z","epoch_age_seconds":55045,"freshness":"FRESH","line1":"1 55959U 23037AX  26145.19759234  .00001154  00000+0  10453-3 0  9992","line2":"2 55959  70.0003  71.5430 0002910 269.5779  90.5047 14.98328559175936","mean_motion":14.98328559,"eccentricity":0.000291,"inclination_deg":70.0003,"raan_deg":71.543,"arg_perigee_deg":269.5779,"mean_anomaly_deg":90.5047,"bstar":0.00010453,"rev_number":17593,"period_min":96.107091555478,"perigee_km":570.03783969361,"apogee_km":574.08285454963,"semimajor_km":6950.1973471216,"source":"CELESTRAK","updated_at":"2026-05-25T13:38:17.919820Z"}}